#timestamp,LO_Frequency,Hit,StdDev 
1692093615.8,286046998.9,N
1692093635.6,286046999.5,N
1692093655.5,286046999.5,N
1692093675.3,286046998.1,N
1692093695.1,286046998.4,N
1692093715.9,286046998.2,N
1692093735.7,286046998.6,N
1692093755.6,286046999.6,N
1692093775.4,286046999.6,N
1692093795.2,286046998.7,N
1692093815.1,286046998.5,N
1692093816.0,286046998.5,N
1692093835.8,286046998.5,Y
1692093855.7,286047000.5,P
1692093875.5,286047000.9,N
1692093895.3,286047002.0,N
1692093915.2,286046999.7,N
1692093935.0,286046999.9,N
1692093935.9,286046999.9,N
1692093955.7,286047002.3,N
1692093975.6,286047002.2,N
1692093995.4,286047002.5,N
1692094015.3,286047002.4,N
1692094035.1,286047000.5,N
1692094036.0,286047000.5,N
1692094055.8,286047000.6,N
1692094075.7,286047000.2,N
1692094095.5,286047000.2,N
1692094115.3,286046999.9,N
1692094135.2,286047000.0,N
1692094155.0,286047002.1,N
1692094155.9,286047002.1,N
1692094175.8,286047002.2,N
1692094195.6,286047001.9,N
1692094215.4,286047003.9,Y
1692094235.3,286047002.5,P
1692094255.1,286047002.6,P
1692094275.8,286047000.1,N
1692094295.7,286047000.2,N
1692094315.5,286047000.5,N
1692094335.4,286047000.9,N
1692094355.2,286046998.1,N
1692094375.0,286046998.5,N
1692094375.9,286046998.5,N
1692094395.8,286047000.0,N
1692094415.6,286047000.6,N
1692094435.4,286047000.9,N
1692094455.3,286047000.2,N
1692094475.1,286047002.8,N
1692094495.9,286047000.5,N
1692094515.7,286047000.4,N
1692094535.5,286046998.1,N
1692094555.4,286046999.4,N
1692094575.2,286046999.5,N
1692094595.0,286046998.8,N
1692094595.9,286046998.8,N
1692094615.8,286046999.0,N
1692094635.6,286046999.0,N
1692094655.4,286046999.3,N
1692094675.3,286046996.8,N
1692094695.1,286046999.6,N
1692094715.9,286046999.2,N
1692094735.7,286046996.5,N
1692094755.5,286046999.1,N
1692094775.4,286046999.5,N
1692094795.2,286046999.5,N
1692094815.1,286046996.9,N
1692094816.0,286046996.9,N
1692094835.8,286046996.8,N
1692094855.6,286046997.3,N
1692094875.5,286046997.3,N
1692094895.3,286046997.4,N
1692094915.1,286046996.7,N
1692094935.9,286046996.8,N
1692094955.7,286046996.9,N
1692094975.6,286046997.5,N
1692094995.4,286046995.2,Y
1692095015.2,286046999.6,P
1692095035.1,286046999.5,N
1692095036.0,286046999.5,N
1692095055.8,286046997.0,Y
1692095075.7,286046999.3,P
1692095095.5,286046996.9,P
1692095115.3,286046996.5,P
1692095135.2,286046996.9,N
1692095155.9,286046996.6,N
1692095175.7,286046999.3,N
1692095195.6,286046997.0,N
1692095215.4,286046997.7,N
1692095235.2,286046997.8,N
1692095255.1,286046995.0,Y
1692095256.0,286046995.0,P
1692095275.8,286046999.3,N
1692095295.7,286046998.9,N
1692095315.5,286046998.9,N
1692095335.3,286046999.3,N
1692095355.2,286046999.5,N
1692095375.0,286046996.7,N
1692095375.9,286046996.7,N
1692095395.8,286046997.3,N
1692095415.6,286046996.8,N
1692095435.4,286046999.1,N
1692095455.3,286046999.0,N
1692095475.1,286046998.6,N
1692095495.8,286046999.2,N
1692095515.7,286046999.4,N
1692095535.5,286046999.1,N
1692095555.4,286046998.4,N
1692095575.2,286046999.4,N
1692095595.0,286046999.1,N
1692095595.9,286046999.1,N
1692095615.8,286046999.1,N
1692095635.6,286046997.3,N
1692095655.4,286046997.7,N
1692095675.3,286046996.9,N
1692095695.1,286046997.7,N
1692095715.9,286046997.9,N
1692095735.7,286046997.4,N
1692095755.5,286046998.0,N
1692095775.4,286046997.8,N
1692095795.2,286046994.9,Y
1692095815.0,286046996.9,P
1692095816.0,286046996.9,P
1692095835.8,286046997.0,P
1692095855.6,286046996.8,Y
1692095875.5,286047000.0,P
1692095895.3,286047000.2,N
1692095915.1,286047000.3,N
1692095935.9,286046999.8,N
1692095955.7,286047000.4,N
1692095975.6,286046999.7,N
1692095995.4,286047000.7,N
1692096015.2,286046998.1,N
1692096035.1,286047000.9,N
1692096036.0,286047000.9,N
1692096055.8,286047000.5,N
1692096075.6,286047000.9,N
1692096095.5,286047000.0,N
1692096115.3,286046998.1,N
1692096135.2,286047000.5,N
1692096155.9,286046999.7,N
1692096175.7,286047002.7,N
1692096195.6,286046999.9,N
1692096215.4,286047000.4,N
1692096235.2,286046999.9,N
1692096255.1,286046999.8,N
1692096256.0,286046999.8,N
1692096275.8,286047000.4,N
1692096295.7,286046999.9,N
1692096315.5,286047000.6,N
1692096335.3,286047000.1,N
1692096355.2,286046998.2,N
1692096375.0,286046998.2,N
1692096375.9,286046998.2,N
1692096395.8,286047000.4,N
1692096415.6,286046999.9,N
1692096435.4,286047002.8,N
1692096455.3,286047002.7,N
1692096475.1,286047002.8,N
1692096495.8,286047000.3,N
1692096515.7,286047000.2,N
1692096535.5,286047000.2,N
1692096555.4,286047000.4,N
1692096575.2,286047002.8,N
1692096595.0,286046999.9,N
1692096595.9,286046999.9,N
1692096615.8,286047000.7,N
1692096635.6,286047000.6,N
1692096655.4,286047000.3,N
1692096675.3,286046999.9,N
1692096695.1,286046999.7,N
1692096715.9,286046999.8,N
1692096735.7,286047002.0,N
1692096755.5,286047001.4,N
1692096775.4,286047002.5,N
1692096795.2,286047001.9,N
1692096815.0,286047002.5,N
1692096815.9,286047002.5,N
1692096835.8,286047000.9,N
1692096855.6,286047000.8,N
1692096875.5,286046998.1,N
1692096895.3,286046998.2,N
1692096915.1,286046998.1,N
1692096935.9,286046999.2,N
1692096955.7,286046996.9,N
1692096975.6,286046996.5,N
1692096995.4,286046999.6,N
1692097015.2,286046999.6,N
1692097035.1,286046998.9,N
1692097036.0,286046998.9,N
1692097055.8,286046998.2,N
1692097105.7,286047001.0,E
1692097115.6,286047000.6,N
1692097135.4,286046999.1,P
1692097155.3,286046996.5,P
1692097175.1,286046998.0,N
1692097195.8,286046996.1,N
